KE9LZ-9 Weather Reports


time (UTC)temp
F
wind
direction
speed
knots
gust
knots
rain 1hr
in
rain 24hr
in
rain mn
in
humidity
%
barometer
mb
20260901023003 73 325 0.0 0.0 0.00 0.20 0.19 99 1013.1
20260901022004 73 50 0.0 0.9 0.00 0.20 0.19 99 1013.1
20260901021004 73 33 0.0 0.0 0.00 0.20 0.19 99 1013.0
20260901020003 73 309 0.0 0.0 0.00 0.20 0.19 99 1012.9
20260901015004 73 309 0.0 0.0 0.00 0.20 0.19 99 1013.0
20260901014003 73 309 0.0 0.0 0.00 0.20 0.19 99 1013.0
20260901013004 73 333 0.0 0.0 0.00 0.20 0.19 99 1012.8
20260901012004 73 333 0.0 0.0 0.00 0.20 0.19 99 1012.5
20260901011004 74 333 0.0 0.0 0.00 0.20 0.19 99 1012.3
20260901010004 74 322 0.0 0.0 0.00 0.20 0.19 99 1012.1
20260901005003 74 347 0.0 0.9 0.00 0.20 0.19 99 1011.9
20260901004004 75 17 0.0 0.9 0.00 0.20 0.19 99 1011.9
20260901002004 76 37 0.0 0.9 0.00 0.20 0.19 98 1011.7
20260901001004 77 25 0.0 0.0 0.00 0.20 0.19 96 1011.8
20260901000004 78 25 0.0 0.0 0.00 0.20 0.19 95 1011.8
20260831235004 79 333 0.0 0.0 0.00 0.20 0.19 93 1011.8
20260831234004 80 333 0.0 0.9 0.00 0.20 0.19 92 1011.7
20260831233004 81 289 0.0 1.7 0.00 0.20 0.19 88 1011.8
20260831232004 81 325 0.9 1.7 0.00 0.20 0.19 88 1011.6
20260831231004 81 8 0.9 1.7 0.00 0.20 0.19 89 1011.7
20260831230004 81 330 0.9 1.7 0.00 0.20 0.19 88 1011.5
20260831225004 82 0 0.9 1.7 0.00 0.20 0.19 86 1011.5
20260831224004 82 43 0.0 2.6 0.00 0.20 0.19 84 1011.4
20260831223004 83 345 0.9 2.6 0.00 0.20 0.19 84 1011.3
20260831221004 81 282 0.9 1.7 0.00 0.20 0.19 88 1011.3
20260831220004 80 327 1.7 2.6 0.00 0.20 0.19 89 1011.5
20260831215004 80 338 0.9 2.6 0.00 0.20 0.19 89 1011.5
20260831214004 80 280 1.7 2.6 0.00 0.20 0.19 88 1011.4
20260831213004 80 317 1.7 2.6 0.00 0.20 0.19 89 1011.1
20260831212004 80 0 0.9 2.6 0.00 0.20 0.19 89 1011.1
20260831211004 80 290 0.0 2.6 0.00 0.20 0.19 88 1011.1
20260831210004 81 0 1.7 2.6 0.00 0.20 0.19 87 1011.0
20260831205003 80 297 0.9 5.2 0.00 0.20 0.19 88 1011.0
20260831202003 80 315 1.7 4.3 0.00 0.20 0.19 87 1010.9
20260831201004 80 291 1.7 2.6 0.00 0.20 0.19 86 1011.0
20260831195003 80 283 1.7 4.3 0.00 0.20 0.19 86 1011.1
20260831194003 80 296 0.9 2.6 0.00 0.20 0.19 86 1011.2
20260831192003 79 318 1.7 4.3 0.00 0.20 0.19 86 1011.2
20260831191004 79 281 0.9 5.2 0.00 0.20 0.19 87 1011.3
20260831190004 80 292 1.7 5.2 0.00 0.20 0.19 86 1011.1
20260831185004 80 277 1.7 6.1 0.00 0.20 0.19 85 1011.4
20260831184004 81 296 0.9 5.2 0.00 0.20 0.19 84 1011.5
20260831183004 79 267 3.5 5.2 0.00 0.20 0.19 86 1011.8
20260831182004 80 301 1.7 7.0 0.00 0.20 0.19 86 1011.7
20260831181004 79 285 2.6 7.8 0.00 0.20 0.19 88 1011.8
20260831174004 79 326 1.7 5.2 0.00 0.20 0.19 87 1011.5
20260831173004 79 158 0.9 5.2 0.00 0.20 0.19 86 1011.7
20260831172004 79 356 0.9 5.2 0.00 0.20 0.19 87 1011.8
20260831171004 78 324 1.7 4.3 0.00 0.20 0.19 89 1011.9
20260831170004 76 319 2.6 4.3 0.00 0.20 0.19 91 1011.9
20260831165004 77 289 2.6 5.2 0.00 0.20 0.19 91 1011.8
20260831164003 76 301 1.7 2.6 0.00 0.20 0.19 91 1011.8
20260831163003 76 287 1.7 2.6 0.00 0.20 0.19 93 1011.9
20260831162004 75 46 0.9 1.7 0.00 0.20 0.19 94 1012.0
20260831161004 75 37 0.9 2.6 0.00 0.20 0.19 95 1011.8
20260831155003 73 354 0.9 2.6 0.00 0.20 0.19 98 1011.9
20260831153004 72 193 0.0 2.6 0.00 0.20 0.19 99 1011.9
20260831152003 71 306 0.9 2.6 0.00 0.20 0.19 99 1012.1
20260831151004 71 58 0.9 5.2 0.00 0.20 0.19 99 1012.1
20260831150004 70 354 0.9 4.3 0.00 0.20 0.19 99 1012.0
20260831145004 71 202 0.9 6.1 0.00 0.20 0.19 99 1012.2
20260831144004 70 313 0.9 4.3 0.00 0.20 0.19 99 1012.3
20260831143004 70 75 1.7 4.3 0.00 0.20 0.19 99 1012.3
20260831142004 69 60 1.7 2.6 0.00 0.20 0.19 99 1012.2
20260831141003 69 75 0.9 4.3 0.00 0.20 0.19 99 1012.4
20260831135004 69 15 0.9 2.6 0.00 0.20 0.19 99 1012.7
20260831134004 69 133 1.7 5.2 0.00 0.20 0.19 99 1012.8
20260831133004 69 321 0.9 4.3 0.00 0.20 0.19 99 1012.5
20260831132003 69 77 0.9 4.3 0.00 0.20 0.19 99 1012.5
20260831131004 69 36 1.7 6.1 0.00 0.20 0.19 99 1012.5
20260831130003 68 12 1.7 4.3 0.00 0.20 0.19 99 1012.7
20260831124004 68 2 1.7 2.6 0.00 0.20 0.19 99 1012.6
20260831123004 68 349 1.7 4.3 0.00 0.20 0.19 99 1012.5
20260831122003 68 76 1.7 5.2 0.00 0.20 0.19 99 1012.6
20260831121004 68 82 1.7 4.3 0.00 0.20 0.19 99 1012.6
20260831120004 68 39 1.7 4.3 0.00 0.20 0.19 99 1012.7
20260831115004 68 63 1.7 5.2 0.00 0.20 0.19 99 1012.6
20260831114004 68 356 1.7 4.3 0.00 0.20 0.19 99 1012.8
20260831113004 68 266 1.7 4.3 0.00 0.20 0.19 99 1012.5
20260831111004 67 17 1.7 2.6 0.00 0.20 0.19 99 1012.6
20260831110004 67 40 0.9 2.6 0.00 0.20 0.19 99 1012.4
20260831105004 67 54 0.9 4.3 0.00 0.20 0.19 99 1012.6
20260831104004 67 83 1.7 4.3 0.00 0.20 0.19 99 1012.7
20260831103005 67 98 1.7 2.6 0.06 0.20 0.19 99 1012.7
20260831101004 67 90 1.7 4.3 0.06 0.21 0.19 99 1013.0
20260831100004 67 357 0.9 2.6 0.06 0.21 0.19 99 1013.0
20260831095004 67 10 1.7 4.3 0.06 0.21 0.19 99 1013.0
20260831094004 67 11 1.7 1.7 0.10 0.20 0.19 99 1012.9
20260831093005 67 59 1.7 2.6 0.13 0.15 0.13 99 1013.1
20260831092004 67 91 0.9 2.6 0.13 0.15 0.13 99 1013.1
20260831091004 67 67 0.9 2.6 0.13 0.15 0.13 99 1013.2
20260831085004 67 22 1.7 2.6 0.13 0.15 0.13 99 1013.2
20260831084004 67 56 1.7 4.3 0.09 0.10 0.09 99 1013.4
20260831083004 67 4 0.9 1.7 0.00 0.02 0.00 99 1013.2
20260831082004 67 45 0.9 1.7 0.00 0.02 0.00 99 1013.5
20260831081004 67 30 0.9 2.6 0.00 0.02 0.00 99 1013.8
20260831075004 67 61 0.9 2.6 0.00 0.02 0.00 99 1014.1
20260831074004 67 0 0.9 1.7 0.00 0.02 0.00 99 1014.1
20260831073004 67 24 0.0 1.7 0.00 0.02 0.00 99 1014.2
20260831072004 68 357 0.0 0.9 0.00 0.02 0.00 99 1014.4
20260831071004 68 16 0.0 0.9 0.00 0.02 0.00 99 1014.4
20260831070004 68 356 0.9 0.9 0.00 0.02 0.00 99 1014.3
20260831065003 68 37 0.0 1.7 0.00 0.02 0.00 99 1014.4
20260831064005 68 338 0.9 1.7 0.00 0.02 0.00 99 1014.4
20260831063004 68 5 0.9 2.6 0.00 0.02 0.00 99 1014.2
20260831062004 68 36 0.9 2.6 0.00 0.02 0.00 99 1014.4
20260831061003 68 2 0.9 1.7 0.00 0.02 0.00 99 1014.3
20260831060004 68 24 0.9 1.7 0.00 0.02 0.00 99 1014.3
20260831055004 68 45 0.9 1.7 0.00 0.02 0.00 99 1014.7
20260831054004 68 0 0.0 0.9 0.00 0.02 0.00 99 1015.0
20260831053004 68 2 0.0 0.9 0.00 0.02 0.00 99 1014.9
20260831051004 68 20 0.9 2.6 0.00 0.02 0.00 99 1014.8
20260831045004 68 58 0.9 1.7 0.00 0.01 0.01 99 1014.6
20260831044005 68 26 0.9 1.7 0.00 0.01 0.01 99 1014.8
20260831043003 68 3 0.9 0.9 0.00 0.01 0.01 99 1015.1
20260831042004 68 353 0.9 0.9 0.00 0.01 0.01 99 1015.0
20260831040004 68 31 0.9 0.9 0.00 0.01 0.01 99 1014.8
20260831035003 68 16 0.0 1.7 0.00 0.01 0.01 99 1014.8
20260831033004 68 55 0.9 2.6 0.00 0.01 0.01 99 1014.8
20260831031004 68 19 0.9 2.6 0.00 0.01 0.01 99 1014.8
20260831030004 68 10 0.9 1.7 0.00 0.01 0.01 99 1014.7
20260831025004 68 9 0.9 1.7 0.00 0.01 0.01 99 1014.7